RH
50 55 62 67 76 92 101 103 104 101 100 100 101 106 100 86 81 82 85 84 78 75 76 81 91 96 89 80 70 58 52 51 49 46 46 49 52 58 65 71 74 76 74 69 61 54 49 41 39 35 30 35
39 48 60 65 70 84 94 98 103 103 101 100 100 103 99 90 90 93 90 85 83 84 86 88 91 94 90 83 74 61 54 50 46 46 45 45 45 46 49 53 59 63 64 61 58 56 48 40 42 39 32 38
29 36 52 67 77 84 86 88 92 98 101 101 101 102 101 101 100 93 84 80 81 84 86 87 87 92 93 86 77 64 54 48 48 50 48 46 44 43 46 50 57 60 63 65 66 59 46 42 44 41 41 48
30 29 35 49 69 84 89 88 86 88 93 99 103 103 103 105 102 92 84 82 83 83 83 84 86 90 90 83 75 64 53 51 57 57 49 46 43 42 45 51 61 69 74 76 71 56 44 43 43 47 52 52
47 40 34 33 43 60 74 83 86 88 89 92 95 99 101 103 104 100 98 96 95 93 90 91 90 88 85 78 71 63 59 63 66 61 52 47 43 41 41 44 53 64 71 70 61 48 45 46 44 49 50 45
74 68 61 53 45 45 50 57 67 77 84 89 90 93 97 101 106 106 105 102 98 95 94 95 91 85 82 77 73 70 68 68 63 54 47 42 39 39 39 40 42 48 54 54 50 45 48 52 48 47 45 42
87 85 84 82 77 70 62 55 53 55 62 71 77 80 83 86 91 93 91 88 85 82 80 80 78 74 71 69 69 66 62 57 49 43 38 35 35 36 36 38 41 43 47 49 50 48 50 53 51 49 47 45
99 91 87 87 89 91 88 80 72 66 61 61 62 63 64 65 66 66 67 67 67 64 61 59 57 55 53 52 52 50 46 43 38 37 37 37 37 39 38 37 42 48 51 51 51 51 49 48 47 49 50 51
111 102 97 94 93 94 93 90 86 81 76 72 69 66 63 61 58 56 54 53 52 50 47 45 42 41 41 41 41 41 40 38 38 38 39 38 37 41 43 41 46 54 58 58 57 57 55 53 53 56 59 64
110 104 100 98 96 94 92 91 88 84 81 77 74 72 69 66 63 60 56 52 49 46 44 42 40 38 38 38 39 40 41 41 40 40 40 38 37 41 46 47 52 58 64 66 66 67 67 66 69 72 72 74
107 106 104 100 95 92 89 88 88 86 83 81 77 73 69 65 62 61 59 57 55 53 50 47 45 42 41 41 43 44 45 46 45 45 44 42 45 49 53 56 59 65 71 76 79 82 84 84 87 89 86 79
104 106 106 103 100 97 92 90 86 83 80 80 78 75 71 66 62 59 57 57 56 56 55 54 52 49 48 48 49 51 53 55 56 58 58 58 62 67 68 69 71 75 79 83 86 87 88 88 89 89 86 80
104 103 102 100 100 100 99 98 93 90 87 86 84 81 78 74 71 68 65 64 61 60 61 60 60 57 56 57 59 63 70 75 78 81 82 83 84 85 82 81 83 84 86 87 88 89 89 87 84 80 77 74
105 102 100 99 100 100 101 101 100 100 99 97 98 95 93 90 87 85 82 80 76 74 74 74 75 76 78 81 84 89 93 96 97 99 100 100 99 98 97 95 95 95 96 96 94 94 93 89 83 76 72 71
104 101 100 100 100 100 101 100 101 103 101 101 104 101 100 100 99 99 97 95 94 92 92 92 92 94 96 99 102 103 103 102 101 102 104 105 103 103 104 104 103 102 103 102 98 98 95 91 86 82 83 82
101 101 100 100 101 100 101 100 101 102 101 103 103 99 99 100 101 100 99 98 98 98 99 100 99 100 101 102 103 103 101 102 102 102 102 104 103 103 105 105 103 103 105 104 102 102 100 100 98 95 98 97
99 102 100 101 102 99 100 101 102 102 102 105 103 102 103 101 103 102 100 100 98 97 98 98 99 100 103 102 102 101 101 103 104 106 106 106 106 104 103 104 103 104 105 104 102 101 99 98 96 93 91 89
100 102 99 100 102 101 102 101 101 101 101 101 102 107 104 97 100 99 101 104 100 99 100 100 101 101 102 103 101 101 102 103 103 105 105 104 104 101 98 98 98 96 95 93 90 89 87 84 82 81 80 79
101 100 100 101 102 102 103 102 102 101 101 102 105 108 102 97 102 100 102 106 101 101 100 100 103 101 101 102 103 103 101 102 103 105 107 105 105 102 97 96 94 90 86 83 81 80 79 78 78 78 78 77
100 100 102 102 102 101 100 101 102 101 104 106 105 105 101 101 104 100 103 105 102 105 103 101 104 101 100 102 106 106 103 106 107 108 108 105 103 99 95 94 92 89 87 84 85 84 82 83 83 81 80 78
98 101 103 103 105 104 101 102 104 105 108 106 104 106 104 102 100 98 100 101 102 106 104 104 107 104 101 103 107 107 104 106 104 103 103 100 98 96 93 91 88 89 89 85 85 85 82 82 81 78 77 75
90 95 98 100 102 100 98 97 97 98 100 98 99 100 93 87 85 86 89 92 97 101 100 103 105 103 102 103 106 107 105 104 100 98 101 99 96 94 92 89 86 85 83 79 77 77 73 72 71 68 67 67
77 79 81 84 85 84 83 81 80 80 82 84 86 85 81 76 73 72 72 74 79 82 86 93 94 96 101 100 98 98 97 96 92 89 90 89 87 87 86 85 83 80 77 74 72 69 65 62 61 59 59 60
71 71 71 71 72 73 72 72 71 70 71 74 76 77 78 75 70 67 64 62 62 63 65 70 72 77 84 83 80 80 81 81 79 77 78 78 77 76 76 75 74 72 71 69 67 64 61 58 57 56 57 59
66 68 67 66 68 68 68 69 69 68 68 68 68 70 71 69 67 64 61 58 56 55 54 55 56 60 65 68 69 72 73 73 74 74 75 75 74 74 72 70 68 66 65 64 64 63 62 61 60 60 61 64
60 61 61 61 63 63 63 64 64 64 63 63 61 60 61 61 61 59 57 54 50 49 49 50 53 54 58 62 64 68 69 69 69 70 69 70 71 71 69 69 68 67 67 67 67 67 67 66 64 64 65 67
55 55 54 55 57 58 59 59 60 59 58 57 56 54 54 54 54 54 53 51 48 45 44 46 49 51 53 56 57 60 62 62 62 62 61 62 63 63 63 65 66 66 66 67 65 65 65 65 66 68 69 70
57 55 52 52 52 53 55 55 56 56 55 54 53 51 50 49 50 50 50 48 46 44 42 43 43 45 47 48 49 50 52 52 52 52 51 51 52 53 53 54 56 56 56 57 58 59 62 63 65 67 66 66
64 64 62 59 57 56 55 55 55 55 54 52 51 50 49 47 47 46 45 44 42 42 44 46 46 47 47 47 47 47 47 47 47 47 47 47 46 46 47 47 48 48 48 50 53 57 62 62 62 61 58 57
65 70 73 74 73 72 69 66 65 64 61 58 57 56 53 51 50 48 47 44 42 42 46 51 54 57 58 58 57 55 54 53 52 52 49 49 49 48 50 50 51 53 54 58 61 64 66 63 61 59 54 51
68 76 82 86 89 90 88 85 83 80 78 77 75 74 72 69 66 63 60 57 56 55 58 61 62 66 68 70 71 68 69 67 64 65 62 59 60 57 58 62 64 66 69 71 70 68 67 64 60 56 50 45
Wind_Speed
80 79 81 81 82 83 83 83 82 80 79 79 80 81 83 83 82 80 79 78 77 77 76 75 74 74 74 74 73 73 72 72 73 74 76 77 78 79 81 82 83 84 84 84 84 84 85 85 83 82 81 80
82 80 80 80 80 82 83 84 83 83 82 81 82 84 85 84 83 82 81 80 79 79 78 78 77 76 76 75 75 75 75 75 76 77 78 80 81 82 83 84 85 86 86 86 86 86 86 85 85 84 83 82
85 84 82 81 80 81 82 83 83 84 84 85 86 86 86 86 85 84 84 83 82 82 81 81 80 79 78 77 77 78 78 78 79 80 81 82 82 83 85 86 87 88 88 88 88 88 87 87 87 86 85 84
89 88 86 85 83 83 83 83 83 84 85 87 88 88 87 87 87 87 87 86 86 86 85 84 82 81 80 80 80 80 81 82 83 83 83 83 83 85 87 88 89 90 90 90 90 89 89 89 88 88 87 87
89 89 89 88 88 87 87 87 86 86 87 88 88 89 89 89 90 90 90 89 89 87 86 85 84 83 81 81 82 83 84 86 87 86 85 85 85 87 88 90 91 92 92 92 91 91 91 91 90 89 89 89
91 90 90 90 90 91 91 91 91 91 91 91 92 93 93 94 94 94 93 92 90 89 87 86 85 85 84 84 84 86 88 90 90 89 89 89 90 90 91 92 93 93 93 93 93 93 92 91 90 90 89 90
98 97 95 95 94 94 95 95 96 95 95 96 97 97 97 97 97 96 95 94 93 92 91 90 89 88 88 87 89 91 92 92 92 92 93 93 94 94 94 95 95 95 95 95 94 94 93 92 92 92 91 91
100 100 100 99 99 98 98 98 98 98 98 99 100 100 100 100 100 99 98 98 97 96 96 95 95 94 93 92 93 94 94 95 96 96 97 97 98 97 97 97 97 97 97 97 96 96 95 95 94 94 94 94
99 99 99 99 99 99 99 99 99 100 100 101 101 102 102 102 102 102 102 101 101 101 100 100 99 98 97 96 95 96 97 98 99 100 100 101 100 100 99 98 98 99 99 99 99 98 97 97 97 97 97 97
99 99 98 99 99 100 100 100 101 102 102 102 102 103 103 103 103 102 102 102 102 102 102 101 100 99 99 98 98 99 100 101 102 103 103 103 102 101 100 99 100 101 101 101 101 100 100 100 100 100 100 101
100 100 100 101 101 102 102 102 102 103 103 103 103 104 104 104 104 103 103 103 103 103 103 102 102 101 101 101 101 102 103 104 105 105 104 103 102 101 101 100 101 102 102 102 102 102 102 102 103 104 105 106
101 101 100 100 100 101 101 101 102 103 103 104 104 105 105 105 105 105 105 105 105 105 105 105 104 104 103 103 103 104 104 105 105 104 104 103 103 102 102 102 103 103 104 104 105 105 105 106 107 108 109 110
102 102 101 100 100 100 99 99 100 100 101 103 104 104 104 104 104 105 105 105 106 106 105 105 105 104 103 103 103 104 104 104 104 104 104 104 104 104 104 104 104 105 106 106 107 108 109 110 111 111 112 112
105 104 103 103 103 102 102 103 102 101 102 102 103 103 102 102 102 102 103 104 104 104 104 104 103 103 102 102 103 104 104 105 105 105 106 106 106 106 107 107 108 108 109 110 110 111 112 112 112 112 113 113
109 107 107 107 107 107 107 108 108 108 108 108 108 107 106 105 104 104 103 103 103 103 102 102 103 102 103 103 104 105 105 106 107 107 108 108 109 110 110 110 110 111 111 111 112 112 112 113 113 113 113 114
113 111 111 111 111 111 111 112 112 112 113 113 113 113 112 112 111 110 109 109 108 107 106 106 106 107 108 108 109 109 110 110 110 110 111 111 112 112 113 113 113 114 114 114 115 115 116 116 117 117 118 118
119 118 116 116 117 116 115 116 115 115 116 115 115 115 116 115 115 114 114 114 113 112 111 111 111 112 114 114 115 115 116 115 116 116 116 117 117 118 119 119 120 120 121 121 121 121 122 122 123 123 123 124
125 124 122 121 121 120 119 119 118 118 118 118 118 119 119 118 117 117 117 117 116 115 115 115 115 116 117 117 118 118 119 119 120 120 121 122 122 123 124 124 125 126 126 126 126 126 127 127 127 127 128 128
129 128 126 125 124 124 122 122 122 122 122 123 124 124 123 122 121 120 120 120 119 119 119 119 120 121 122 122 122 123 124 124 124 124 124 125 125 126 126 127 128 129 129 129 129 129 129 129 130 130 130 130
130 130 130 130 129 128 127 127 127 127 127 128 128 128 127 126 126 126 125 124 123 123 122 122 123 125 126 126 127 127 128 128 128 128 128 128 128 128 129 130 130 131 131 131 131 131 131 132 132 132 132 132
132 132 133 134 135 134 133 132 132 131 131 131 130 130 130 129 129 129 129 128 128 127 126 125 126 126 127 128 129 130 131 131 131 131 131 131 131 132 132 133 133 134 134 133 133 133 133 133 133 133 133 133
134 134 135 136 138 138 137 135 135 134 134 133 133 133 133 132 131 130 131 131 131 131 130 130 130 129 129 129 130 131 132 132 132 132 132 132 133 134 134 134 135 135 135 134 134 133 133 132 132 132 132 132
138 138 138 138 139 139 139 138 137 137 136 136 135 136 136 135 134 133 133 133 133 133 133 133 133 133 133 133 132 133 133 133 133 132 132 133 133 134 135 135 136 136 136 135 134 133 133 132 132 132 131 131
142 142 142 142 141 141 141 140 140 140 139 139 138 138 137 137 137 137 137 137 136 136 135 135 135 135 136 135 135 134 134 134 133 132 131 132 132 133 134 135 135 135 135 134 134 133 132 132 132 131 130 130
140 141 142 142 142 142 143 143 143 143 142 142 141 140 140 139 138 138 138 138 138 138 137 136 136 136 136 136 135 135 135 135 134 133 132 131 131 131 132 133 133 133 133 132 132 131 131 130 130 130 129 129
139 140 140 140 140 141 141 142 143 143 143 143 142 142 141 141 140 139 139 139 139 138 137 136 136 135 135 135 135 135 135 136 136 135 134 133 133 132 132 132 132 132 132 131 130 129 129 129 129 130 130 130
138 139 139 139 139 139 140 141 142 142 143 143 143 143 143 142 142 141 141 142 141 140 139 138 138 137 136 136 136 136 136 137 137 136 136 135 134 134 133 132 132 132 132 131 131 131 130 131 131 132 132 133
136 137 137 137 137 137 138 139 140 141 141 142 142 142 143 143 143 143 143 143 142 140 139 140 140 140 140 140 140 140 140 140 139 139 138 138 137 137 136 136 136 135 135 135 135 135 134 135 135 135 136 136
135 135 135 135 135 135 135 136 137 138 138 138 139 139 140 140 140 141 142 142 141 139 138 138 138 139 140 140 141 141 141 141 140 140 140 140 139 139 139 139 139 139 139 138 138 138 138 139 139 139 140 139
134 134 134 134 134 134 135 135 135 136 136 136 136 136 137 138 138 138 139 140 139 137 137 137 137 137 137 138 138 139 139 139 139 139 139 139 138 138 138 138 138 138 139 139 140 140 141 142 142 142 142 141
134 134 133 134 134 134 135 135 135 136 136 135 135 135 136 137 137 137 137 137 137 136 136 136 136 136 136 137 137 138 138 138 138 137 138 138 137 137 137 138 138 139 140 140 141 142 142 143 143 143 143 142
Wind_Direction
244 246 246 246 247 247 246 246 246 245 246 248 250 251 253 255 257 259 260 261 261 261 261 262 263 265 268 269 270 271 272 273 275 276 277 277 277 277 277 277 277 278 279 280 280 281 282 283 283 283 284 284
245 246 247 247 247 247 247 247 247 247 247 248 249 251 253 256 258 259 260 261 261 261 262 262 264 266 268 268 268 269 271 272 274 275 276 276 276 276 277 277 277 277 278 278 279 281 282 282 282 283 283 284
247 246 247 247 248 248 248 248 248 249 249 249 249 251 253 256 257 258 259 260 261 262 262 263 264 266 267 267 267 269 270 272 273 274 275 275 276 276 276 276 276 277 277 278 279 280 281 282 282 283 283 283
248 247 247 247 248 249 249 249 249 249 250 250 250 251 253 255 257 258 259 260 261 262 262 263 264 266 267 267 267 268 270 271 273 274 275 275 276 276 276 276 276 276 277 278 279 280 281 282 282 281 281 281
247 247 247 247 248 249 249 250 250 250 250 251 251 252 253 254 256 257 258 260 261 261 262 263 264 265 266 266 267 268 269 271 273 274 275 276 276 276 276 276 275 276 276 277 278 279 280 280 280 279 279 279
248 248 247 247 248 248 249 250 250 251 251 251 252 252 253 254 255 257 258 259 261 261 262 263 264 264 265 266 266 268 269 271 272 274 275 276 276 277 277 276 275 275 275 275 276 277 278 278 278 278 278 278
249 249 249 249 249 249 249 250 250 251 252 252 253 253 254 254 255 257 258 259 260 261 262 263 264 264 265 266 267 268 270 271 273 274 275 276 276 276 276 276 275 274 274 274 275 275 276 276 276 276 277 278
248 250 250 251 251 250 250 250 251 251 252 252 253 254 254 255 256 257 258 259 260 261 262 263 264 265 266 267 268 269 271 272 273 275 275 276 276 276 276 276 275 274 274 274 274 274 275 275 276 276 277 278
247 248 249 250 250 250 250 251 251 251 252 252 253 254 255 256 257 258 259 260 261 262 263 264 265 266 267 267 269 270 271 273 274 275 275 276 276 276 276 275 274 274 274 274 274 275 275 275 276 277 277 278
247 247 248 249 249 250 251 252 253 253 254 254 255 256 257 258 259 260 261 261 262 263 264 265 266 266 267 268 270 271 272 273 274 274 275 275 275 275 275 274 274 274 274 274 274 275 275 276 276 277 277 278
246 247 248 249 250 251 252 253 254 255 256 256 257 257 258 259 260 261 262 262 263 264 265 266 267 268 268 269 270 271 272 273 273 274 274 274 274 273 274 274 273 273 273 273 274 274 275 275 276 277 277 278
246 246 247 248 249 251 252 254 255 256 257 258 258 259 259 260 261 262 263 263 264 265 266 267 267 268 269 270 270 271 271 271 272 272 272 272 272 272 272 273 273 273 272 273 273 273 274 274 275 276 277 277
245 245 245 245 246 247 249 251 252 254 255 257 257 258 259 260 261 262 263 264 265 266 267 267 268 269 269 269 269 269 269 270 270 270 270 271 271 271 271 271 272 272 272 272 272 273 273 274 275 276 277 277
243 243 244 244 245 246 247 249 250 251 252 254 255 256 258 259 260 261 262 263 264 265 266 267 267 267 268 268 267 267 267 268 268 268 269 269 269 270 270 270 270 271 271 271 272 273 273 274 275 276 277 277
243 243 243 244 246 247 248 249 250 251 252 253 255 256 257 258 259 259 260 261 262 263 264 264 264 265 265 265 265 265 266 266 267 267 268 268 268 269 269 269 270 270 271 271 272 273 273 274 275 276 276 277
243 243 243 245 246 248 249 250 252 253 254 255 256 257 258 259 260 260 261 261 261 262 262 262 262 263 263 264 264 265 265 266 266 266 267 267 268 268 269 270 270 271 271 272 272 273 274 274 275 276 276 277
245 245 245 246 248 249 250 251 253 254 255 256 257 258 259 259 260 261 262 262 262 262 262 262 263 263 263 264 265 265 265 266 266 267 267 267 268 268 269 270 271 271 272 272 273 274 275 275 276 277 277 278
246 247 247 248 249 249 250 251 252 254 256 257 258 258 259 260 261 261 261 262 262 262 262 263 263 263 264 264 265 266 266 266 267 267 268 268 269 269 270 271 271 272 273 273 274 275 275 276 277 277 278 278
248 248 249 248 249 249 250 252 253 255 256 257 258 258 259 260 261 262 262 262 262 262 263 263 263 264 264 265 266 267 267 268 268 268 269 269 270 270 271 271 272 273 273 274 274 275 276 276 277 277 278 278
249 249 250 250 250 250 251 253 255 256 257 258 259 259 259 260 260 261 262 262 263 263 263 263 263 264 265 265 266 267 268 268 269 270 270 271 271 272 272 273 273 274 274 275 275 276 277 277 277 278 278 279
250 250 251 251 252 252 253 254 255 256 257 258 259 259 259 259 260 260 261 261 262 263 263 263 263 264 264 265 266 267 267 268 268 269 270 271 272 272 273 273 274 274 275 275 276 276 277 277 277 278 278 278
251 251 251 252 253 254 254 255 255 256 257 258 259 259 260 260 260 260 261 261 262 262 263 263 264 264 265 265 266 266 267 267 268 269 270 271 271 272 272 273 273 274 274 275 275 276 276 277 277 277 278 278
251 251 252 253 254 254 255 256 256 257 258 258 259 260 261 261 262 262 262 262 262 262 263 263 264 265 266 266 267 267 268 268 269 269 270 270 271 272 272 272 273 274 274 275 275 276 276 276 277 277 277 278
251 252 252 253 254 255 256 257 257 258 258 259 260 261 262 262 262 262 263 263 264 264 264 265 265 266 266 267 268 268 269 269 270 270 270 270 271 271 272 272 273 273 274 274 275 275 276 276 276 277 277 277
251 252 252 253 254 255 256 257 258 258 258 259 260 261 262 262 262 263 263 264 264 265 265 266 266 267 267 268 268 269 269 270 270 270 270 271 271 271 272 272 273 273 274 274 274 275 275 275 276 276 276 277
252 252 253 254 254 255 256 256 257 258 258 259 260 260 261 262 263 263 263 264 264 265 265 266 266 267 267 267 268 268 269 269 270 270 270 271 271 272 272 273 273 273 274 274 274 275 275 275 276 276 276 276
254 254 254 255 255 256 256 257 258 258 259 259 260 260 261 262 263 264 264 264 264 265 265 266 266 266 267 267 267 268 268 269 269 269 270 270 271 271 272 272 273 273 273 274 274 274 275 275 275 276 276 276
255 256 256 256 256 257 258 258 258 259 259 260 260 261 262 262 263 264 264 265 265 265 266 266 266 267 267 267 268 268 268 269 269 270 270 270 271 271 271 272 272 273 273 274 275 275 275 275 275 276 276 277
256 257 257 257 257 258 258 259 259 260 260 261 261 262 262 263 263 264 264 265 265 266 266 267 267 268 268 268 268 269 269 270 270 271 271 271 272 272 273 274 274 275 275 276 276 277 277 277 277 277 277 278
257 257 258 258 259 259 259 260 260 261 261 262 262 263 263 264 264 265 265 266 266 267 267 268 268 269 269 270 270 270 270 271 271 272 272 272 273 274 274 275 276 276 277 277 277 277 278 278 279 279 279 279
257 258 258 259 260 260 261 261 262 262 263 263 264 264 265 265 266 266 266 267 267 268 268 268 269 269 270 271 271 271 272 272 273 273 274 274 275 275 276 276 277 277 277 277 278 278 279 279 280 280 280 280